This demonstration page uses our WeatherBlox Daily Observations layout. Learn more.

Left ArrowRight Arrow

Hourly Observations for August 14, 2017

Temp ( °F °C ) Dew Point ( °F °C ) Humidity (%) Winds ( mph kmh ) Pressure ( in mb ) Visibility ( mi km ) Precip ( " mm )
12:52 am 00:52 Cloudy with Mist and Fog 68 20 68 20 100 100 SE 6 9 29.88 1012 6 10 0.00 0.00
1:27 am 01:27 Cloudy with Mist and Fog 68 20 68 20 100 100 SSE 5 7 29.88 1012 6 10 0.00 0.00
1:52 am 01:52 Cloudy 68 20 68 20 100 100 SSE 8 13 29.88 1012 7 11 0.00 0.00
2:21 am 02:21 Cloudy 68 20 68 20 100 100 S 8 13 29.88 1012 9 14 0.00 0.00
2:52 am 02:52 Cloudy 68 20 68 20 100 100 S 8 13 29.86 1011 10 16 0.00 0.00
3:49 am 03:49 Cloudy 68 20 68 20 100 100 S 6 9 29.85 1011 10 16 0.00 0.00
3:52 am 03:52 Cloudy 68 20 68 20 100 100 S 6 9 29.86 1011 10 16 0.00 0.00
4:31 am 04:31 Cloudy 68 20 68 20 100 100 S 6 9 29.85 1011 8 13 0.00 0.00
4:52 am 04:52 Cloudy 68 20 68 20 100 100 S 5 7 29.86 1011 7 11 0.00 0.00
5:52 am 05:52 Cloudy 69 20.6 69 20.6 100 100 Calm 29.85 1011 9 14 0.00 0.00
6:01 am 06:01 Cloudy 69 20.6 69 20.6 100 100 Calm 29.85 1011 9 14 0.00 0.00
6:20 am 06:20 Cloudy 69 20.6 69 20.6 100 100 Calm 29.85 1011 9 14 0.00 0.00
6:28 am 06:28 Cloudy 69 20.6 69 20.6 100 100 Calm 29.85 1011 9 14 0.00 0.00
6:52 am 06:52 Cloudy 69 20.6 69 20.6 100 100 Calm 29.85 1011 8 13 0.00 0.00
7:16 am 07:16 Cloudy 69 20.6 69 20.6 100 100 Calm 29.85 1011 8 13 0.00 0.00
7:35 am 07:35 Cloudy with Mist and Fog 69 20.6 69 20.6 100 100 Calm 29.85 1011 6 10 0.00 0.00
7:52 am 07:52 Cloudy 69 20.6 69 20.6 100 100 SSW 3 6 29.87 1011 8 13 0.00 0.00
8:39 am 08:39 Cloudy 70 21.1 69 20.6 97 97 WSW 3 6 29.88 1012 9 14 0.00 0.00
8:52 am 08:52 Cloudy 70 21.1 69 20.6 97 97 WSW 3 6 29.87 1012 10 16 0.00 0.00
9:34 am 09:34 Cloudy 71 21.7 69 20.6 94 94 Calm 29.88 1012 10 16 0.00 0.00
9:52 am 09:52 Cloudy 71 21.7 69 20.6 94 94 NW 3 6 29.87 1012 10 16 0.00 0.00
10:52 am 10:52 Cloudy 72 22.2 68 20 87 87 undefined N/A 29.87 1012 10 16 0.00 0.00
11:39 am 11:39 Cloudy 73 22.8 69 20.6 87 87 VRB 5 7 29.85 1011 10 16 0.00 0.00
11:52 am 11:52 Cloudy 73 22.8 69 20.6 87 87 SSW 6 9 29.88 1012 10 16 0.00 0.00
12:02 pm 12:02 Cloudy 73 22.8 70 21.1 90 90 S 7 11 29.85 1011 10 16 0.00 0.00
12:28 pm 12:28 Mostly Cloudy 75 23.9 69 20.6 82 82 S 7 11 29.85 1011 10 16 0.00 0.00
12:52 pm 12:52 Mostly Cloudy 76 24.4 69 20.6 79 79 SSW 8 13 29.87 1012 10 16 0.00 0.00
12:59 pm 12:59 Partly Cloudy 75 23.9 69 20.6 82 82 SSW 7 11 29.85 1011 10 16 0.00 0.00
1:52 pm 13:52 Mostly Sunny 77 25 69 20.6 77 77 Calm 29.86 1011 10 16 0.00 0.00
2:52 pm 14:52 Sunny 79 26.1 71 21.7 77 77 undefined N/A 29.85 1011 10 16 0.00 0.00
3:52 pm 15:52 Sunny 79 26.1 71 21.7 77 77 S 6 9 29.83 1010 10 16 0.00 0.00
4:52 pm 16:52 Mostly Sunny 81 27.2 72 22.2 74 74 SSW 6 9 29.82 1010 10 16 0.00 0.00
5:52 pm 17:52 Mostly Sunny 80 26.7 69 20.6 69 69 Calm 29.81 1009 10 16 0.00 0.00
6:52 pm 18:52 Sunny 80 26.7 70 21.1 71 71 SW 5 7 29.81 1009 10 16 0.00 0.00
7:52 pm 19:52 Sunny 78 25.6 71 21.7 79 79 SSW 3 6 29.82 1010 10 16 0.00 0.00
8:52 pm 20:52 Clear 73 22.8 70 21.1 90 90 S 7 11 29.82 1010 10 16 0.00 0.00
9:52 pm 21:52 Clear 72 22.2 70 21.1 94 94 S 5 7 29.84 1011 10 16 0.00 0.00
10:52 pm 22:52 Clear 70 21.1 69 20.6 97 97 S 5 7 29.85 1011 10 16 0.00 0.00
11:52 pm 23:52 Clear 70 21.1 69 20.6 97 97 S 3 6 29.86 1011 10 16 0.00 0.00

Powered by AerisWeather